• In Kazakhstan
  • List of Countries
  • For 7 days
  • Water Temperature
  • Weather Map
  • News
  • Weather Widgets
  • user-avatar
    Login

    Hourly Weather San Miguel de Tucumán

    Today, 21 August, Wednesday

    Time Temperature Precipitation Wind Pressure Humidity
    00:00 +10°C° 0 mm 1 mps 725 mmHg 60%
    01:00 +9°C° 0 mm 0 mps 725 mmHg 62%
    02:00 +8°C° 0 mm 0 mps 725 mmHg 63%
    03:00 +8°C° 0 mm 0 mps 725 mmHg 65%
    04:00 +8°C° 0 mm 0 mps 724 mmHg 66%
    05:00 +7°C° 0 mm 0 mps 724 mmHg 67%
    06:00 +8°C° 0 mm 0 mps 725 mmHg 63%
    07:00 +9°C° 0 mm 0 mps 725 mmHg 58%
    08:00 +10°C° 0 mm 0 mps 726 mmHg 54%
    09:00 +14°C° 0 mm 1 mps 725 mmHg 47%
    10:00 +18°C° 0 mm 1 mps 725 mmHg 39%
    11:00 +20°C° 0 mm 1 mps 725 mmHg 32%
    12:00 +21°C° 0 mm 2 mps 724 mmHg 29%
    13:00 +23°C° 0 mm 2 mps 723 mmHg 26%
    14:00 +25°C° 0 mm 3 mps 722 mmHg 23%
    15:00 +25°C° 0 mm 3 mps 722 mmHg 24%
    16:00 +24°C° 0 mm 3 mps 722 mmHg 25%
    17:00 +24°C° 0 mm 3 mps 721 mmHg 26%
    18:00 +21°C° 0 mm 2 mps 721 mmHg 31%
    19:00 +18°C° 0 mm 2 mps 722 mmHg 36%
    20:00 +16°C° 0 mm 1 mps 722 mmHg 41%
    21:00 +15°C° 0 mm 1 mps 722 mmHg 43%
    22:00 +14°C° 0 mm 1 mps 722 mmHg 45%
    23:00 +14°C° 0 mm 1 mps 722 mmHg 47%

    Tomorrow, 22 August, Thursday

    Time Temperature Precipitation Wind Pressure Humidity
    00:00 +13°C° 0 mm 1 mps 722 mmHg 48%
    01:00 +13°C° 0 mm 1 mps 722 mmHg 49%
    02:00 +13°C° 0 mm 1 mps 721 mmHg 50%
    03:00 +12°C° 0 mm 1 mps 722 mmHg 52%
    04:00 +12°C° 0 mm 2 mps 723 mmHg 54%
    05:00 +10°C° 0 mm 2 mps 723 mmHg 56%
    06:00 +12°C° 0 mm 2 mps 725 mmHg 55%
    07:00 +12°C° 0 mm 2 mps 726 mmHg 53%
    08:00 +12°C° 0 mm 3 mps 727 mmHg 51%
    09:00 +14°C° 0 mm 3 mps 728 mmHg 46%
    10:00 +18°C° 0 mm 3 mps 729 mmHg 41%
    11:00 +20°C° 0 mm 3 mps 729 mmHg 36%
    12:00 +22°C° 0 mm 3 mps 729 mmHg 33%
    13:00 +24°C° 0 mm 3 mps 728 mmHg 30%
    14:00 +25°C° 0 mm 3 mps 728 mmHg 27%
    15:00 +25°C° 0 mm 2 mps 728 mmHg 28%
    16:00 +25°C° 0 mm 2 mps 728 mmHg 28%
    17:00 +24°C° 0 mm 2 mps 727 mmHg 29%
    18:00 +21°C° 0 mm 2 mps 728 mmHg 35%
    19:00 +18°C° 0 mm 2 mps 728 mmHg 41%
    20:00 +16°C° 0 mm 1 mps 728 mmHg 47%
    21:00 +16°C° 0 mm 1 mps 728 mmHg 49%
    22:00 +15°C° 0 mm 1 mps 728 mmHg 50%
    23:00 +15°C° 0 mm 1 mps 728 mmHg 52%

    Day after tomorrow, 23 August, Friday

    Time Temperature Precipitation Wind Pressure Humidity
    00:00 +14°C° 0 mm 1 mps 727 mmHg 53%
    01:00 +14°C° 0 mm 1 mps 727 mmHg 54%
    02:00 +13°C° 0 mm 1 mps 726 mmHg 55%
    03:00 +13°C° 0 mm 1 mps 726 mmHg 57%
    04:00 +12°C° 0 mm 1 mps 725 mmHg 58%
    05:00 +12°C° 0 mm 1 mps 725 mmHg 60%
    06:00 +13°C° 0 mm 1 mps 725 mmHg 57%
    07:00 +14°C° 0 mm 1 mps 726 mmHg 54%
    08:00 +15°C° 0 mm 1 mps 726 mmHg 51%
    09:00 +19°C° 0 mm 1 mps 726 mmHg 45%
    10:00 +20°C° 0 mm 2 mps 726 mmHg 40%
    11:00 +24°C° 0 mm 2 mps 725 mmHg 34%
    12:00 +26°C° 0 mm 2 mps 724 mmHg 31%
    13:00 +27°C° 0 mm 3 mps 724 mmHg 28%
    14:00 +29°C° 0 mm 3 mps 723 mmHg 25%
    15:00 +28°C° 0 mm 3 mps 722 mmHg 26%
    16:00 +28°C° 0 mm 3 mps 721 mmHg 27%
    17:00 +28°C° 0 mm 3 mps 721 mmHg 27%
    18:00 +25°C° 0 mm 3 mps 721 mmHg 33%
    19:00 +22°C° 0 mm 3 mps 721 mmHg 38%
    20:00 +20°C° 0 mm 3 mps 721 mmHg 43%
    21:00 +19°C° 0 mm 2 mps 721 mmHg 46%
    22:00 +18°C° 0 mm 2 mps 720 mmHg 49%
    23:00 +18°C° 0 mm 1 mps 720 mmHg 53%

    24 August, Saturday

    Time Temperature Precipitation Wind Pressure Humidity
    00:00 +16°C° 0 mm 1 mps 720 mmHg 54%
    01:00 +15°C° 0 mm 1 mps 720 mmHg 56%
    02:00 +15°C° 0 mm 1 mps 719 mmHg 58%
    03:00 +13°C° 0 mm 0 mps 719 mmHg 59%
    04:00 +13°C° 0 mm 0 mps 719 mmHg 61%
    05:00 +12°C° 0 mm 0 mps 719 mmHg 62%
    06:00 +13°C° 0 mm 0 mps 719 mmHg 59%
    07:00 +14°C° 0 mm 0 mps 719 mmHg 55%
    08:00 +15°C° 0 mm 0 mps 720 mmHg 52%
    09:00 +20°C° 0 mm 1 mps 720 mmHg 46%
    10:00 +23°C° 0 mm 1 mps 719 mmHg 39%
    11:00 +25°C° 0 mm 2 mps 719 mmHg 33%
    12:00 +27°C° 0 mm 2 mps 718 mmHg 30%
    13:00 +28°C° 0 mm 2 mps 718 mmHg 28%
    14:00 +30°C° 0 mm 2 mps 717 mmHg 25%
    15:00 +29°C° 0 mm 2 mps 717 mmHg 26%
    16:00 +29°C° 0 mm 2 mps 717 mmHg 27%
    17:00 +29°C° 0 mm 2 mps 716 mmHg 28%
    18:00 +26°C° 0 mm 2 mps 717 mmHg 34%
    19:00 +24°C° 0 mm 2 mps 717 mmHg 39%
    20:00 +21°C° 0 mm 1 mps 717 mmHg 44%
    21:00 +21°C° 0 mm 1 mps 718 mmHg 46%
    22:00 +20°C° 0 mm 1 mps 718 mmHg 48%
    23:00 +20°C° 0 mm 1 mps 718 mmHg 50%

    25 August, Sunday

    Time Temperature Precipitation Wind Pressure Humidity
    00:00 +20°C° 0 mm 1 mps 718 mmHg 51%
    01:00 +19°C° 0 mm 1 mps 717 mmHg 52%
    02:00 +19°C° 0 mm 1 mps 717 mmHg 54%
    03:00 +19°C° 0 mm 1 mps 717 mmHg 55%
    04:00 +18°C° 0 mm 1 mps 717 mmHg 56%
    05:00 +18°C° 0 mm 1 mps 717 mmHg 57%
    06:00 +19°C° 0 mm 1 mps 718 mmHg 54%
    07:00 +20°C° 0 mm 1 mps 719 mmHg 51%
    08:00 +19°C° 0 mm 2 mps 719 mmHg 49%
    09:00 +21°C° 0 mm 2 mps 720 mmHg 45%
    10:00 +24°C° 0 mm 3 mps 720 mmHg 41%
    11:00 +26°C° 0 mm 3 mps 720 mmHg 37%
    12:00 +28°C° 0 mm 3 mps 720 mmHg 35%
    13:00 +29°C° 0 mm 4 mps 720 mmHg 33%
    14:00 +30°C° 0 mm 4 mps 720 mmHg 31%
    15:00 +29°C° 0 mm 4 mps 721 mmHg 33%
    16:00 +29°C° 0 mm 4 mps 721 mmHg 36%
    17:00 +28°C° 0 mm 4 mps 722 mmHg 38%
    18:00 +26°C° 0 mm 3 mps 722 mmHg 48%
    19:00 +23°C° 0 mm 2 mps 723 mmHg 57%
    20:00 +21°C° 0 mm 1 mps 723 mmHg 67%
    21:00 +20°C° 0 mm 1 mps 724 mmHg 70%
    22:00 +17°C° 0 mm 0 mps 724 mmHg 73%
    23:00 +17°C° 0 mm 0 mps 725 mmHg 77%

    26 August, Monday

    Time Temperature Precipitation Wind Pressure Humidity
    00:00 +16°C° 0 mm 0 mps 725 mmHg 78%
    01:00 +18°C° 0 mm 1 mps 725 mmHg 79%
    02:00 +18°C° 0 mm 1 mps 725 mmHg 80%
    03:00 +16°C° 0 mm 1 mps 725 mmHg 82%
    04:00 +15°C° 0 mm 0 mps 725 mmHg 85%
    05:00 +14°C° 0 mm 0 mps 725 mmHg 88%
    06:00 +15°C° 0 mm 0 mps 725 mmHg 83%
    07:00 +18°C° 0 mm 1 mps 726 mmHg 77%
    08:00 +19°C° 0 mm 1 mps 727 mmHg 72%
    09:00 +22°C° 0 mm 1 mps 727 mmHg 63%
    10:00 +24°C° 0 mm 1 mps 727 mmHg 55%
    11:00 +27°C° 0 mm 1 mps 727 mmHg 46%
    12:00 +28°C° 0 mm 2 mps 726 mmHg 44%
    13:00 +29°C° 0 mm 2 mps 725 mmHg 41%
    14:00 +30°C° 0 mm 3 mps 724 mmHg 38%
    15:00 +29°C° 0 mm 3 mps 724 mmHg 40%
    16:00 +29°C° 0 mm 3 mps 724 mmHg 41%
    17:00 +28°C° 0 mm 3 mps 724 mmHg 43%
    18:00 +26°C° 0 mm 2 mps 724 mmHg 52%
    19:00 +23°C° 0 mm 2 mps 724 mmHg 61%
    20:00 +21°C° 0 mm 1 mps 724 mmHg 70%
    21:00 +20°C° 0 mm 1 mps 725 mmHg 76%
    22:00 +19°C° 0 mm 1 mps 725 mmHg 81%
    23:00 +18°C° 0 mm 1 mps 725 mmHg 87%
    Show more